STARLINK-35920, 66623

Orbit data source: Space-Track

STARLINK-35920, 66623 is a payload satellite owned by SpaceX/Seattle (US) in LEO that was launched on Sun, 23 Nov 2025 UTC via an FALCON 9 launch vehicle from the Air Force Western Test Range (AFWTR). Payload-class satellites include a variety of spacecraft equipped with specific instruments for various scientific and technological missions. These include communications satellites like Starlink; space stations such as the ISS; scientific satellites like the Hubble; Earth observation satellites from companies like Planet Labs, Umbra, and HawkEye 360; GPS; miniature CubeSats for education and research; and military/defense satellites.

Loading next visibility...
Identifier
66623, 2025-271G
Orbit
LEO
Country
Flag of USUS
Related business
Manufacturer
SpaceX/Seattle
Mission
Operational Commercial Communications
Bus & Motor
STARLINK V2MO, Unknown motor
Mass
575 kg wet, ~530 kg dry
Launch date (UTC)
2025-11-23 (1 month ago)
Launch vehicle
FALCON 9
Launch site
Air Force Western Test Range (AFWTR)
Object type
Payload
Rocket body
Debris
Shape & HBR
Box + 2 Pan, 17.7 m
Radar Cross Section
36.964 m²

Expand to show TLE details & history
Last TLE update: 12 hours ago

TLE from 12 hours ago
0 STARLINK-35920
1 66623U 25271G   25355.13972161  .00029548  00000-0  74533-3 0  9993
2 66623  53.1604 147.3981 0000370  94.5229 265.5818 15.39639229  5502
Epoch: 2025-12-21T03:21Z
TLE epoch observation values (Epoch: 2025-12-21T03:21:11.947Z)
Latitude
-0.00001°
Longitude
7.14186°
Altitude
448.098 km
Speed
7.645 km/s
True Right ascension
09h 49m 35s
True Declination
0° 00' 00"
Sunlit
Object was in full shadow at epoch
Visualization orbit readout
Latitude
Unknown
Longitude
Unknown
Altitude
Unknown
Speed
Unknown
Apparent Right ascension
Unknown
Apparent Declination
Unknown
Sunlit
N/A
Visualization observer readout
Local Sidereal Time
13:57:20
Azimuth
Unknown
Elevation
Unknown
Doppler factor
Unknown
Orbital elements
Apogee altitude
447.685 km
Perigee altitude
447.18 km
Semi-major axis
6,825.57 km
Eccentricity
0.00004
Inclination
53.1604°
RAAN
147.3981°
Arg. of periapsis
94.5229°
True anomaly
265.57757°
Mean anomaly
265.5818°
Eccentric anomaly
265.57969°
Mean motion
3.84888 °/min
Orbital period
93.53 mins
BSTAR
0.00074533
Loading maneuver chart data...
Computing Atmospheric mass density...
Loading historical data...
Loading historical data...
Loading historical data...
Loading historical data...
Loading historical data...
Loading historical data...
Loading historical data...

Documentation

Showing up to 5 results
|